Miscellaneous Local Product
Issued by NWS Hastings, NE

Home | Current Version | Previous Version | Text Only | Print | Product List | Glossary On
Versions: 1 2 3 4 5 6 7 8 9 10 11 12 13 14 15 16 17 18 19 20 21 22 23 24 25 26 27 28 29 30 31 32 33 34 35 36 37 38 39 40 41 42 43 44 45 46 47 48 49 50
000
AXUS43 KGID 120302
MISGRI

GID CWA HOURLY WEATHER ROUNDUP
NATIONAL WEATHER SERVICE HASTINGS NE
1000 PM CDT FRI JUL 11 2014

NOTE: "FAIR" INDICATES FEW OR NO CLOUDS BELOW 12,000 FEET WITH NO
SIGNIFICANT WEATHER AND/OR OBSTRUCTIONS TO VISIBILITY.

...SOUTH CENTRAL NEBRASKA...

CITY           SKY/WX    TMP DP  RH WIND       PRES   REMARKS
GRAND ISLAND   PTCLDY    79  75  87 E6        29.98R
HASTINGS       CLEAR     83  63  50 S9        29.97R
KEARNEY        CLEAR     77  72  83 SE7       29.98R
ORD            MOCLDY    75  73  93 E6        29.99R
YORK           CLEAR     77  75  94 E8        29.99R
AURORA         CLEAR     78  76  92 E6        29.98R
LEXINGTON      PTCLDY    79  75  87 E13       29.98R
HOLDREGE       CLEAR     76  64  66 CALM      29.98R
HEBRON         CLEAR     81  67  63 S6        29.98R

...NEBRASKA PANHANDLE...

CITY           SKY/WX    TMP DP  RH WIND       PRES   REMARKS
CHADRON        RAIN      64  61  90 NE10      30.16F FOG
ALLIANCE       CLOUDY    67  65  93 N14       30.11R
SCOTTSBLUFF    CLOUDY    68  61  78 N24G33    30.12R
SIDNEY         CLOUDY    71  65  81 CALM      30.12R

...WESTERN AND NORTH CENTRAL NEBRASKA...

CITY           SKY/WX    TMP DP  RH WIND       PRES   REMARKS
VALENTINE      LGT RAIN  78  71  79 N8        30.06R
AINSWORTH      CLOUDY    74  72  92 NE6       30.04R
ONEILL         CLOUDY    75  71  87 E3        30.05R THUNDER FOG
BROKEN BOW     MOCLDY    77  74  90 E9        30.00R
IMPERIAL       CLOUDY    79  67  66 N18       30.02R
NORTH PLATTE   CLOUDY    77  69  76 E10       29.98R
MCCOOK         PTCLDY    84  56  38 S9        29.94R

...EASTERN NEBRASKA...

CITY           SKY/WX    TMP DP  RH WIND       PRES   REMARKS
NORFOLK        LGT RAIN  75  71  87 E7        30.00R
SO SIOUX CITY  CLOUDY    74  71  91 E5        30.02R
TEKAMAH        CLOUDY    75  72  90 NE5       30.00R
ALBION         MOCLDY    75  72  89 NE5       30.00R
OMAHA EPPLEY   MOCLDY    79  73  82 E7        29.99R
OFFUTT AFB     MOCLDY    78  78  99 E6        29.99R
MILLARD        MOCLDY    80  74  82 E3        29.99R
LINCOLN        CLEAR     82  75  79 E6        29.98R
NEBRASKA CITY  PTCLDY    79  78  95 S5        29.99R
BEATRICE       CLEAR     81  69  66 S8        29.99R
FALLS CITY     CLEAR     80  76  87 SE5       29.99R

...NORTHERN KANSAS...

CITY           SKY/WX    TMP DP  RH WIND       PRES   REMARKS
GOODLAND       MOCLDY    82  51  34 S16       30.02R
HILL CITY      CLEAR     86  57  37 S15       29.98R
NORTON         CLEAR     82  50  32 SE10      29.96R
PHILLIPSBURG   CLEAR     84  61  45 SE9       29.98R
SMITH CENTER   CLEAR     81  63  54 SE13      29.99R
BELOIT         CLEAR     84  63  48 SE8       29.98R
HAYS           CLEAR     79  55  44 S12       30.02R
RUSSELL        CLEAR     79  65  62 S13       30.00R
CONCORDIA      CLEAR     83  65  54 S12       30.00R
SALINA         CLEAR     83  65  54 S12       30.00R
TOPEKA         CLEAR     86  71  60 S7        30.02R HX  91



USA.gov is the U.S. government's official web portal to all federal, state and local government web resources and services.